[[{"header":{"parameterUnit":"m.s-1","parameterCategory":1,"la1":30.2991,"la2":30.254,"lo1":-89.0895,"lo2":-89.0444,"dy":0.0017,"dx":0.0017,"nx":28,"ny":28,"refTime":"2025-11-19T03:00:00:Z","depth":0,"parameterNumber":2,"parameterNumberName":"U-component_of_WINDS"},"data":[0,0,0,0,0,0,0,0,0,0,0,0,0,0,0,0,0,0,0,0,0,0,0,0,0,0,0,0,0,0,0,0,0,0,0,0,0,0,0,0,0,0,0,0,0,0,0,0,0,0,0,0,0,0,0,0,0,0,-0.8936,-0.8936,0,-0.8926,-0.8925,-0.8925,-0.8895,-0.8894,-0.8893,-0.8893,-0.8881,-0.8881,-0.8882,0,0,0,0,0,0,0,0,0,0,0,0,0,-0.8928,-0.8928,-0.8936,-0.8936,-0.8936,-0.8926,-0.8925,-0.8925,-0.8895,-0.8894,-0.8893,-0.8892,-0.8881,-0.8881,-0.8882,0,0,0,0,0,0,0,0,0,0,0,0,0,-0.8926,-0.8929,-0.8936,-0.8919,-0.8918,-0.8926,-0.8925,-0.8925,-0.8895,-0.8894,-0.8893,-0.8892,-0.8881,-0.8881,-0.8882,-0.8905,0,0,-0.8883,-0.8884,0,0,0,0,0,0,0,0,-0.8926,-0.8926,-0.8922,-0.8921,-0.8919,-0.891,-0.8918,-0.8918,-0.8895,-0.8904,-0.8893,-0.8892,-0.8892,-0.8891,-0.8891,-0.8904,-0.8904,-0.8883,-0.8884,-0.8884,-0.8884,0,0,0,0,0,0,0,-0.8926,-0.8927,-0.8932,-0.8922,-0.892,-0.8912,-0.891,-0.8918,-0.8903,-0.8903,-0.8901,-0.89,-0.8891,-0.8891,-0.8891,-0.8903,-0.8883,-0.8884,-0.8884,-0.8884,-0.8932,-0.8933,0,0,0,0,0,0,-0.8929,-0.8927,-0.8932,-0.8932,-0.892,-0.8913,-0.8911,-0.8914,-0.8903,-0.8901,-0.8901,-0.8898,-0.8891,-0.889,-0.889,-0.8915,-0.8884,-0.8884,-0.8885,-0.8931,-0.8932,-0.8933,0,0,0,0,0,0,-0.8929,-0.893,-0.8933,-0.8929,-0.8928,-0.8914,-0.8918,-0.8914,-0.8915,-0.8902,-0.8899,-0.8904,-0.889,-0.889,-0.8901,-0.8914,-0.8884,-0.8885,-0.893,-0.8931,-0.8933,-0.8965,0,0,0,0,0,0,-0.8929,-0.893,-0.8939,-0.8929,-0.8929,-0.8944,-0.8918,-0.8915,-0.8916,-0.8913,-0.8904,-0.8901,-0.8889,-0.89,-0.8901,-0.8914,-0.8885,-0.8929,-0.8931,-0.8932,-0.8963,-0.8967,-0.8971,0,0,0,0,0,-0.8929,-0.8949,-0.894,-0.8941,-0.894,-0.8945,-0.8945,-0.893,-0.8917,-0.8926,-0.8917,-0.8902,-0.8913,-0.8902,-0.8903,-0.8916,-0.8928,-0.893,-0.8932,-0.8961,-0.8967,-0.8971,0,0,0,0,0,0,-0.8961,-0.8947,-0.8937,-0.8955,-0.8951,-0.894,-0.895,-0.8937,-0.8937,-0.8935,-0.8916,-0.8915,-0.8928,-0.8923,-0.8911,-0.8936,-0.8917,-0.892,-0.8939,-0.8944,-0.8949,-0.8949,-0.8886,0,0,0,0,0,-0.897,-0.8976,-0.8964,-0.898,-0.8979,-0.8965,-0.8967,-0.8956,-0.8952,-0.895,-0.8942,-0.8938,-0.894,-0.8942,-0.8943,-0.8962,-0.8958,-0.8971,-0.8975,-0.8979,-0.8981,-0.8989,-0.8994,-0.8941,-0.8941,-0.8941,0,0,-0.899,-0.8983,-0.8988,-0.8987,-0.8983,-0.8988,-0.8964,-0.8972,-0.8975,-0.8951,-0.8961,-0.8955,-0.8949,-0.8963,-0.8969,-0.8959,-0.8995,-0.8982,-0.8985,-0.8985,-0.8992,-0.8997,-0.9001,-0.8942,-0.8942,-0.8942,0,0,-0.9027,-0.9023,-0.9036,-0.9032,-0.9026,-0.9016,-0.9019,-0.9009,-0.9004,-0.9014,-0.8995,-0.8999,-0.9004,-0.9,-0.8998,-0.9032,-0.9018,-0.9033,-0.9056,-0.9063,-0.9067,-0.9071,-0.9082,-0.9086,-0.9035,-0.9036,-0.9036,0,-0.9052,-0.906,-0.9044,-0.9052,-0.9051,-0.9029,-0.9041,-0.9038,-0.9033,-0.9033,-0.9022,-0.9026,-0.9021,-0.9033,-0.9041,-0.9041,-0.9043,-0.9034,-0.9068,-0.9072,-0.9075,-0.9085,-0.9089,-0.9037,-0.9037,-0.9037,-0.9037,0,-0.9089,-0.9095,-0.9106,-0.9101,-0.9102,-0.9112,-0.9096,-0.9099,-0.9088,-0.9079,-0.9087,-0.908,-0.9079,-0.9081,-0.907,-0.9091,-0.9085,-0.9072,-0.9052,-0.9082,-0.9091,-0.9095,-0.904,-0.9039,-0.9039,-0.9038,0,0,-0.9148,-0.9133,-0.9137,-0.9134,-0.9125,-0.9128,-0.9137,-0.9135,-0.9137,-0.9134,-0.9139,-0.9143,-0.913,-0.9128,-0.9117,-0.9123,-0.9149,-0.9109,-0.9108,-0.9115,-0.9169,-0.9179,-0.9184,-0.9139,-0.914,-0.914,-0.9169,0,-0.9182,-0.9196,-0.9181,-0.9197,-0.9201,-0.918,-0.9187,-0.9181,-0.9173,-0.9174,-0.9165,-0.9167,-0.915,-0.9149,-0.9155,-0.9145,-0.9159,-0.9142,-0.9143,-0.9143,-0.9144,-0.9188,-0.9199,-0.9227,-0.9173,-0.9173,-0.9174,0,-0.9224,-0.9222,-0.9239,-0.9227,-0.9228,-0.9235,-0.9232,-0.9234,-0.9227,-0.922,-0.9217,-0.9203,-0.9209,-0.919,-0.9198,-0.9186,-0.9186,-0.918,-0.9181,-0.918,-0.916,-0.9187,-0.9235,-0.9239,-0.9179,-0.9179,-0.9179,0,-0.9263,-0.9265,-0.9275,-0.9273,-0.926,-0.9265,-0.9259,-0.9251,-0.9251,-0.9248,-0.9247,-0.9244,-0.9243,-0.9241,-0.9225,-0.9214,-0.9234,-0.9215,-0.9227,-0.9228,-0.9232,-0.9232,-0.9279,-0.9233,-0.9233,-0.9233,-0.9233,0,-0.9303,-0.9314,-0.9292,-0.9298,-0.9309,-0.9291,-0.9302,-0.9295,-0.9287,-0.929,-0.9272,-0.9275,-0.9255,-0.9256,-0.9244,-0.9251,-0.925,-0.9244,-0.9241,-0.9245,-0.9246,-0.9244,-0.9241,-0.9234,-0.9234,-0.9234,-0.9234,0,-0.9349,-0.9335,-0.9344,-0.933,-0.9327,-0.9335,-0.9323,-0.9328,-0.9317,-0.9321,-0.9321,-0.9305,-0.9305,-0.9289,-0.9286,-0.9278,-0.9289,-0.9283,-0.9292,-0.9289,-0.9302,-0.9301,-0.9349,-0.9354,-0.9306,-0.9307,-0.9307,0,-0.9374,-0.9382,-0.9369,-0.937,-0.9365,-0.9367,-0.9366,-0.9349,-0.9348,-0.934,-0.9344,-0.9343,-0.934,-0.934,-0.9328,-0.9324,-0.9317,-0.9334,-0.9316,-0.932,-0.9316,-0.9315,-0.9315,-0.9338,-0.9339,-0.9339,-0.9339,0,-0.9421,-0.9413,-0.9413,-0.941,-0.9409,-0.9406,-0.9401,-0.9403,-0.9383,-0.9383,-0.9383,-0.9381,-0.9377,-0.9375,-0.9369,-0.9362,-0.9347,-0.9345,-0.9348,-0.9352,-0.9356,-0.9353,-0.9301,-0.9344,-0.9344,-0.9343,-0.9343,-0.9343,-0.9457,-0.9462,-0.9453,-0.9452,-0.9447,-0.9443,-0.9445,-0.9435,-0.9434,-0.943,-0.9419,-0.942,-0.941,-0.9401,-0.9396,-0.9395,-0.9386,-0.939,-0.9391,-0.9392,-0.9394,-0.9357,-0.9394,-0.9394,-0.9394,-0.9394,-0.9394,0,-0.9501,-0.9494,-0.9494,-0.9488,-0.9487,-0.9473,-0.9467,-0.9467,-0.9467,-0.946,-0.9458,-0.9456,-0.9453,-0.944,-0.9436,-0.9437,-0.943,-0.9437,-0.9436,-0.9434,-0.9403,-0.9401,-0.9443,-0.9443,-0.9443,-0.9443,-0.9443,-0.9442,-0.9524,-0.9531,-0.9522,-0.9526,-0.9519,-0.9519,-0.9517,-0.9512,-0.9506,-0.9505,-0.9502,-0.9494,-0.9483,-0.9478,-0.9474,-0.947,-0.9469,-0.9477,-0.9471,-0.9442,-0.9437,-0.9432,-0.943,-0.9477,-0.9477,-0.9502,-0.9502,-0.9502]},{"header":{"parameterUnit":"m.s-1","parameterCategory":1,"la1":30.2991,"la2":30.254,"lo1":-89.0895,"lo2":-89.0444,"dy":0.0017,"dx":0.0017,"nx":28,"ny":28,"refTime":"2025-11-19T03:00:00:Z","depth":0,"parameterNumber":3,"parameterNumberName":"V-component_of_WINDS"},"data":[0,0,0,0,0,0,0,0,0,0,0,0,0,0,0,0,0,0,0,0,0,0,0,0,0,0,0,0,0,0,0,0,0,0,0,0,0,0,0,0,0,0,0,0,0,0,0,0,0,0,0,0,0,0,0,0,0,0,0.035,0.035,0,0.0353,0.0353,0.0353,0.036,0.036,0.036,0.036,0.036,0.036,0.036,0,0,0,0,0,0,0,0,0,0,0,0,0,0.0349,0.0349,0.035,0.035,0.0351,0.0353,0.0353,0.0353,0.036,0.036,0.036,0.0361,0.0361,0.036,0.036,0,0,0,0,0,0,0,0,0,0,0,0,0,0.035,0.0349,0.035,0.0354,0.0355,0.0353,0.0353,0.0354,0.036,0.036,0.036,0.0361,0.0361,0.036,0.036,0.0355,0,0,0.036,0.0359,0,0,0,0,0,0,0,0,0.035,0.035,0.0354,0.0354,0.0354,0.0357,0.0353,0.0354,0.036,0.0358,0.036,0.0361,0.0359,0.0359,0.0359,0.0355,0.0355,0.036,0.0359,0.0359,0.0359,0,0,0,0,0,0,0,0.035,0.035,0.0352,0.0354,0.0354,0.0355,0.0356,0.0353,0.0357,0.0358,0.0359,0.0359,0.0359,0.0359,0.0359,0.0355,0.036,0.0359,0.0359,0.0359,0.0348,0.0348,0,0,0,0,0,0,0.035,0.035,0.0351,0.0352,0.0353,0.0355,0.0356,0.0356,0.0357,0.0358,0.0359,0.0359,0.0359,0.0359,0.0359,0.0354,0.0359,0.0359,0.0359,0.0348,0.0348,0.0347,0,0,0,0,0,0,0.035,0.035,0.0351,0.0351,0.0351,0.0355,0.0355,0.0356,0.0356,0.0358,0.0358,0.0358,0.0359,0.0359,0.0356,0.0354,0.0359,0.0359,0.0348,0.0348,0.0348,0.0342,0,0,0,0,0,0,0.035,0.035,0.0348,0.0351,0.0351,0.0349,0.0355,0.0356,0.0356,0.0356,0.0357,0.0357,0.0359,0.0356,0.0356,0.0353,0.0359,0.0348,0.0348,0.0348,0.0343,0.0342,0.0341,0,0,0,0,0,0.035,0.0345,0.0348,0.0348,0.0349,0.0349,0.0349,0.0352,0.0355,0.0353,0.0355,0.0357,0.0354,0.0356,0.0356,0.0353,0.0348,0.0348,0.0348,0.0343,0.0342,0.0341,0,0,0,0,0,0,0.034,0.0346,0.0349,0.0345,0.0347,0.035,0.0348,0.0351,0.0351,0.0351,0.0354,0.0355,0.0351,0.0352,0.0354,0.0348,0.0352,0.0351,0.0348,0.0347,0.0347,0.0346,0.0359,0,0,0,0,0,0.0338,0.0338,0.0342,0.0339,0.034,0.0344,0.0344,0.0346,0.0348,0.0348,0.0349,0.035,0.0349,0.0348,0.0347,0.0343,0.0343,0.0341,0.034,0.0339,0.0339,0.0338,0.0337,0.0346,0.0346,0.0346,0,0,0.0333,0.0336,0.0335,0.0337,0.0339,0.0339,0.0344,0.0343,0.0343,0.0347,0.0345,0.0346,0.0347,0.0344,0.0342,0.0344,0.0337,0.0339,0.0338,0.0338,0.0337,0.0336,0.0335,0.0346,0.0346,0.0346,0,0,0.0324,0.0326,0.0324,0.0326,0.0329,0.0332,0.0331,0.0335,0.0336,0.0334,0.0338,0.0338,0.0336,0.0337,0.0337,0.033,0.0333,0.033,0.0326,0.0324,0.0324,0.0323,0.0321,0.0321,0.0329,0.0329,0.0329,0,0.0317,0.0317,0.0322,0.0322,0.0323,0.0329,0.0327,0.0328,0.033,0.033,0.0333,0.0332,0.0333,0.033,0.0329,0.0329,0.0328,0.0329,0.0324,0.0323,0.0322,0.0321,0.032,0.0329,0.0329,0.0329,0.0329,0,0.0309,0.0309,0.0307,0.0311,0.0312,0.031,0.0315,0.0315,0.0318,0.0321,0.032,0.0321,0.0322,0.0321,0.0323,0.0319,0.0321,0.0323,0.0326,0.0321,0.032,0.0319,0.0328,0.0329,0.0329,0.0329,0,0,0.0293,0.0301,0.03,0.0303,0.0307,0.0307,0.0306,0.0308,0.0308,0.031,0.0309,0.0309,0.0312,0.0312,0.0314,0.0313,0.0309,0.0316,0.0316,0.0315,0.0306,0.0305,0.0304,0.0311,0.0311,0.0311,0.0306,0,0.0285,0.0285,0.0291,0.0289,0.029,0.0296,0.0296,0.0298,0.0301,0.0302,0.0304,0.0304,0.0308,0.0308,0.0308,0.031,0.0308,0.031,0.0311,0.0311,0.0311,0.0303,0.0301,0.0296,0.0306,0.0306,0.0306,0,0.0275,0.0278,0.0277,0.0283,0.0284,0.0283,0.0286,0.0287,0.029,0.0292,0.0294,0.0297,0.0297,0.03,0.03,0.0302,0.0303,0.0304,0.0304,0.0304,0.0308,0.0303,0.0295,0.0294,0.0305,0.0305,0.0305,0,0.0265,0.0268,0.0268,0.027,0.0277,0.0277,0.0279,0.0283,0.0284,0.0286,0.0287,0.0289,0.029,0.0291,0.0295,0.0297,0.0294,0.0298,0.0296,0.0296,0.0295,0.0295,0.0287,0.0295,0.0295,0.0295,0.0295,0,0.0255,0.0254,0.0264,0.0264,0.0264,0.027,0.0269,0.0272,0.0276,0.0277,0.0282,0.0282,0.0287,0.0288,0.0291,0.0291,0.0291,0.0293,0.0294,0.0293,0.0293,0.0293,0.0294,0.0295,0.0295,0.0295,0.0295,0,0.0243,0.0249,0.025,0.0257,0.0259,0.0259,0.0264,0.0265,0.0269,0.027,0.027,0.0276,0.0277,0.0282,0.0284,0.0286,0.0285,0.0287,0.0285,0.0285,0.0283,0.0284,0.0275,0.0275,0.0283,0.0283,0.0283,0,0.0237,0.0237,0.0244,0.0246,0.0249,0.0251,0.0253,0.0259,0.0261,0.0266,0.0266,0.0268,0.027,0.0273,0.0277,0.0279,0.028,0.0277,0.028,0.028,0.0281,0.0281,0.0281,0.0276,0.0276,0.0276,0.0276,0,0.0225,0.0229,0.0232,0.0236,0.0239,0.0242,0.0246,0.0247,0.0254,0.0256,0.0258,0.026,0.0264,0.0266,0.0269,0.0271,0.0275,0.0275,0.0275,0.0274,0.0273,0.0274,0.0283,0.0275,0.0275,0.0275,0.0276,0.0276,0.0216,0.0217,0.0223,0.0227,0.023,0.0234,0.0235,0.024,0.0243,0.0247,0.0251,0.0253,0.0257,0.0262,0.0264,0.0266,0.0268,0.0267,0.0267,0.0267,0.0267,0.0273,0.0267,0.0267,0.0267,0.0267,0.0267,0,0.0205,0.021,0.0213,0.0219,0.0222,0.0227,0.0232,0.0234,0.0236,0.024,0.0243,0.0247,0.025,0.0255,0.0258,0.0258,0.026,0.0259,0.0259,0.026,0.0265,0.0265,0.0258,0.0258,0.0258,0.0258,0.0258,0.0258,0.02,0.0202,0.0207,0.0211,0.0215,0.0219,0.0221,0.0225,0.0229,0.0233,0.0236,0.0239,0.0244,0.0248,0.0251,0.0252,0.0253,0.0252,0.0254,0.0258,0.0259,0.026,0.026,0.0252,0.0252,0.0248,0.0248,0.0248]}]]